{"data":{"norad_id":58710,"epoch":"2026-05-24T19:11:24.143136Z","epoch_age_seconds":89367,"freshness":"FRESH","line1":"1 58710U 24002F   26144.79958499 -.00000152  00000+0  35904-5 0  9990","line2":"2 58710  53.1593 258.6533 0000486  84.7453 275.3620 15.69726582138390","mean_motion":15.69726582,"eccentricity":4.86e-5,"inclination_deg":53.1593,"raan_deg":258.6533,"arg_perigee_deg":84.7453,"mean_anomaly_deg":275.362,"bstar":3.5904e-6,"rev_number":13839,"period_min":91.735721144843,"perigee_km":359.35184162859,"apogee_km":360.0067573729,"semimajor_km":6737.8162995007,"source":"CELESTRAK","updated_at":"2026-05-25T13:38:18.715556Z"}}